Index of /20260411/WXO-DD/model_gdps/15km/12/129
Name Last modified Size Description
Parent Directory -
20260411T12Z_MSC_GDPS_AbsoluteVorticity_IsbL-0200_LatLon0.15_PT129H.grib2 2026-04-11 16:46 1.2M
20260411T12Z_MSC_GDPS_AbsoluteVorticity_IsbL-0250_LatLon0.15_PT129H.grib2 2026-04-11 16:46 1.3M
20260411T12Z_MSC_GDPS_AbsoluteVorticity_IsbL-0500_LatLon0.15_PT129H.grib2 2026-04-11 16:46 1.4M
20260411T12Z_MSC_GDPS_AbsoluteVorticity_IsbL-0700_LatLon0.15_PT129H.grib2 2026-04-11 16:46 1.3M
20260411T12Z_MSC_GDPS_AbsoluteVorticity_IsbL-0850_LatLon0.15_PT129H.grib2 2026-04-11 16:46 1.6M
20260411T12Z_MSC_GDPS_AirTemp_AGL-120m_LatLon0.15_PT129H.grib2 2026-04-11 16:46 920K
20260411T12Z_MSC_GDPS_AirTemp_AGL-2m_LatLon0.15_PT129H.grib2 2026-04-11 16:46 1.0M
20260411T12Z_MSC_GDPS_AirTemp_AGL-40m_LatLon0.15_PT129H.grib2 2026-04-11 16:46 944K
20260411T12Z_MSC_GDPS_AirTemp_AGL-80m_LatLon0.15_PT129H.grib2 2026-04-11 16:46 931K
20260411T12Z_MSC_GDPS_AirTemp_IsbL-0001_LatLon0.15_PT129H.grib2 2026-04-11 16:46 701K
20260411T12Z_MSC_GDPS_AirTemp_IsbL-0005_LatLon0.15_PT129H.grib2 2026-04-11 16:46 681K
20260411T12Z_MSC_GDPS_AirTemp_IsbL-0010_LatLon0.15_PT129H.grib2 2026-04-11 16:46 752K
20260411T12Z_MSC_GDPS_AirTemp_IsbL-0020_LatLon0.15_PT129H.grib2 2026-04-11 16:46 697K
20260411T12Z_MSC_GDPS_AirTemp_IsbL-0030_LatLon0.15_PT129H.grib2 2026-04-11 16:46 748K
20260411T12Z_MSC_GDPS_AirTemp_IsbL-0050_LatLon0.15_PT129H.grib2 2026-04-11 16:46 816K
20260411T12Z_MSC_GDPS_AirTemp_IsbL-0100_LatLon0.15_PT129H.grib2 2026-04-11 16:46 955K
20260411T12Z_MSC_GDPS_AirTemp_IsbL-0150_LatLon0.15_PT129H.grib2 2026-04-11 16:46 962K
20260411T12Z_MSC_GDPS_AirTemp_IsbL-0175_LatLon0.15_PT129H.grib2 2026-04-11 16:46 952K
20260411T12Z_MSC_GDPS_AirTemp_IsbL-0200_LatLon0.15_PT129H.grib2 2026-04-11 16:46 971K
20260411T12Z_MSC_GDPS_AirTemp_IsbL-0225_LatLon0.15_PT129H.grib2 2026-04-11 16:46 1.0M
20260411T12Z_MSC_GDPS_AirTemp_IsbL-0250_LatLon0.15_PT129H.grib2 2026-04-11 16:46 1.0M
20260411T12Z_MSC_GDPS_AirTemp_IsbL-0275_LatLon0.15_PT129H.grib2 2026-04-11 16:46 947K
20260411T12Z_MSC_GDPS_AirTemp_IsbL-0300_LatLon0.15_PT129H.grib2 2026-04-11 16:46 956K
20260411T12Z_MSC_GDPS_AirTemp_IsbL-0350_LatLon0.15_PT129H.grib2 2026-04-11 16:46 934K
20260411T12Z_MSC_GDPS_AirTemp_IsbL-0400_LatLon0.15_PT129H.grib2 2026-04-11 16:46 944K
20260411T12Z_MSC_GDPS_AirTemp_IsbL-0450_LatLon0.15_PT129H.grib2 2026-04-11 16:46 967K
20260411T12Z_MSC_GDPS_AirTemp_IsbL-0500_LatLon0.15_PT129H.grib2 2026-04-11 16:46 1.0M
20260411T12Z_MSC_GDPS_AirTemp_IsbL-0550_LatLon0.15_PT129H.grib2 2026-04-11 16:46 800K
20260411T12Z_MSC_GDPS_AirTemp_IsbL-0600_LatLon0.15_PT129H.grib2 2026-04-11 16:46 893K
20260411T12Z_MSC_GDPS_AirTemp_IsbL-0650_LatLon0.15_PT129H.grib2 2026-04-11 16:46 919K
20260411T12Z_MSC_GDPS_AirTemp_IsbL-0700_LatLon0.15_PT129H.grib2 2026-04-11 16:46 955K
20260411T12Z_MSC_GDPS_AirTemp_IsbL-0750_LatLon0.15_PT129H.grib2 2026-04-11 16:46 1.0M
20260411T12Z_MSC_GDPS_AirTemp_IsbL-0800_LatLon0.15_PT129H.grib2 2026-04-11 16:46 1.1M
20260411T12Z_MSC_GDPS_AirTemp_IsbL-0850_LatLon0.15_PT129H.grib2 2026-04-11 16:46 1.1M
20260411T12Z_MSC_GDPS_AirTemp_IsbL-0875_LatLon0.15_PT129H.grib2 2026-04-11 16:46 1.2M
20260411T12Z_MSC_GDPS_AirTemp_IsbL-0900_LatLon0.15_PT129H.grib2 2026-04-11 16:46 1.1M
20260411T12Z_MSC_GDPS_AirTemp_IsbL-0925_LatLon0.15_PT129H.grib2 2026-04-11 16:46 1.1M
20260411T12Z_MSC_GDPS_AirTemp_IsbL-0950_LatLon0.15_PT129H.grib2 2026-04-11 16:46 1.1M
20260411T12Z_MSC_GDPS_AirTemp_IsbL-0970_LatLon0.15_PT129H.grib2 2026-04-11 16:46 1.2M
20260411T12Z_MSC_GDPS_AirTemp_IsbL-0985_LatLon0.15_PT129H.grib2 2026-04-11 16:46 1.1M
20260411T12Z_MSC_GDPS_AirTemp_IsbL-1000_LatLon0.15_PT129H.grib2 2026-04-11 16:46 1.1M
20260411T12Z_MSC_GDPS_AirTemp_IsbL-1015_LatLon0.15_PT129H.grib2 2026-04-11 16:46 1.1M
20260411T12Z_MSC_GDPS_Albedo_Sfc_LatLon0.15_PT129H.grib2 2026-04-11 16:46 245K
20260411T12Z_MSC_GDPS_CAPE_Sfc_LatLon0.15_PT129H.grib2 2026-04-11 16:46 3.7M
20260411T12Z_MSC_GDPS_CIN_Sfc_LatLon0.15_PT129H.grib2 2026-04-11 16:46 2.8M
20260411T12Z_MSC_GDPS_CloudWater_EAtm_LatLon0.15_PT129H.grib2 2026-04-11 16:46 528K
20260411T12Z_MSC_GDPS_ConvectivePrecip-Accum_Sfc_LatLon0.15_PT129H.grib2 2026-04-11 16:46 3.2M
20260411T12Z_MSC_GDPS_DewPointDepression_AGL-2m_LatLon0.15_PT129H.grib2 2026-04-11 16:46 752K
20260411T12Z_MSC_GDPS_DewPointDepression_IsbL-0010_LatLon0.15_PT129H.grib2 2026-04-11 16:46 11K
20260411T12Z_MSC_GDPS_DewPointDepression_IsbL-0020_LatLon0.15_PT129H.grib2 2026-04-11 16:46 53K
20260411T12Z_MSC_GDPS_DewPointDepression_IsbL-0030_LatLon0.15_PT129H.grib2 2026-04-11 16:46 73K
20260411T12Z_MSC_GDPS_DewPointDepression_IsbL-0050_LatLon0.15_PT129H.grib2 2026-04-11 16:46 361K
20260411T12Z_MSC_GDPS_DewPointDepression_IsbL-0100_LatLon0.15_PT129H.grib2 2026-04-11 16:46 377K
20260411T12Z_MSC_GDPS_DewPointDepression_IsbL-0150_LatLon0.15_PT129H.grib2 2026-04-11 16:46 452K
20260411T12Z_MSC_GDPS_DewPointDepression_IsbL-0175_LatLon0.15_PT129H.grib2 2026-04-11 16:46 534K
20260411T12Z_MSC_GDPS_DewPointDepression_IsbL-0200_LatLon0.15_PT129H.grib2 2026-04-11 16:46 621K
20260411T12Z_MSC_GDPS_DewPointDepression_IsbL-0225_LatLon0.15_PT129H.grib2 2026-04-11 16:46 761K
20260411T12Z_MSC_GDPS_DewPointDepression_IsbL-0250_LatLon0.15_PT129H.grib2 2026-04-11 16:46 870K
20260411T12Z_MSC_GDPS_DewPointDepression_IsbL-0275_LatLon0.15_PT129H.grib2 2026-04-11 16:46 891K
20260411T12Z_MSC_GDPS_DewPointDepression_IsbL-0300_LatLon0.15_PT129H.grib2 2026-04-11 16:46 929K
20260411T12Z_MSC_GDPS_DewPointDepression_IsbL-0350_LatLon0.15_PT129H.grib2 2026-04-11 16:46 963K
20260411T12Z_MSC_GDPS_DewPointDepression_IsbL-0400_LatLon0.15_PT129H.grib2 2026-04-11 16:46 1.0M
20260411T12Z_MSC_GDPS_DewPointDepression_IsbL-0450_LatLon0.15_PT129H.grib2 2026-04-11 16:46 1.0M
20260411T12Z_MSC_GDPS_DewPointDepression_IsbL-0500_LatLon0.15_PT129H.grib2 2026-04-11 16:46 1.0M
20260411T12Z_MSC_GDPS_DewPointDepression_IsbL-0550_LatLon0.15_PT129H.grib2 2026-04-11 16:46 1.0M
20260411T12Z_MSC_GDPS_DewPointDepression_IsbL-0600_LatLon0.15_PT129H.grib2 2026-04-11 16:46 1.1M
20260411T12Z_MSC_GDPS_DewPointDepression_IsbL-0650_LatLon0.15_PT129H.grib2 2026-04-11 16:46 1.1M
20260411T12Z_MSC_GDPS_DewPointDepression_IsbL-0700_LatLon0.15_PT129H.grib2 2026-04-11 16:46 1.1M
20260411T12Z_MSC_GDPS_DewPointDepression_IsbL-0750_LatLon0.15_PT129H.grib2 2026-04-11 16:46 1.1M
20260411T12Z_MSC_GDPS_DewPointDepression_IsbL-0800_LatLon0.15_PT129H.grib2 2026-04-11 16:46 1.2M
20260411T12Z_MSC_GDPS_DewPointDepression_IsbL-0850_LatLon0.15_PT129H.grib2 2026-04-11 16:46 1.2M
20260411T12Z_MSC_GDPS_DewPointDepression_IsbL-0875_LatLon0.15_PT129H.grib2 2026-04-11 16:46 1.1M
20260411T12Z_MSC_GDPS_DewPointDepression_IsbL-0900_LatLon0.15_PT129H.grib2 2026-04-11 16:46 1.1M
20260411T12Z_MSC_GDPS_DewPointDepression_IsbL-0925_LatLon0.15_PT129H.grib2 2026-04-11 16:46 1.0M
20260411T12Z_MSC_GDPS_DewPointDepression_IsbL-0950_LatLon0.15_PT129H.grib2 2026-04-11 16:46 1.0M
20260411T12Z_MSC_GDPS_DewPointDepression_IsbL-0970_LatLon0.15_PT129H.grib2 2026-04-11 16:46 1.0M
20260411T12Z_MSC_GDPS_DewPointDepression_IsbL-0985_LatLon0.15_PT129H.grib2 2026-04-11 16:46 1.0M
20260411T12Z_MSC_GDPS_DewPointDepression_IsbL-1000_LatLon0.15_PT129H.grib2 2026-04-11 16:46 1.0M
20260411T12Z_MSC_GDPS_DewPointDepression_IsbL-1015_LatLon0.15_PT129H.grib2 2026-04-11 16:46 919K
20260411T12Z_MSC_GDPS_DewPoint_AGL-2m_LatLon0.15_PT129H.grib2 2026-04-11 16:46 615K
20260411T12Z_MSC_GDPS_DownwardLongwaveRadiationFlux-Accum_Sfc_LatLon0.15_PT129H.grib2 2026-04-11 16:46 814K
20260411T12Z_MSC_GDPS_DownwardShortwaveRadiationFlux-Accum_NTAtm_LatLon0.15_PT129H.grib2 2026-04-11 16:46 208K
20260411T12Z_MSC_GDPS_DownwardShortwaveRadiationFlux-Accum_Sfc_LatLon0.15_PT129H.grib2 2026-04-11 16:46 1.0M
20260411T12Z_MSC_GDPS_FreezingRain-Accum1h_Sfc_LatLon0.15_PT129H.grib2 2026-04-11 16:46 38K
20260411T12Z_MSC_GDPS_FreezingRain-Accum3h_Sfc_LatLon0.15_PT129H.grib2 2026-04-11 16:46 40K
20260411T12Z_MSC_GDPS_FreezingRain-Accum_Sfc_LatLon0.15_PT129H.grib2 2026-04-11 16:46 235K
20260411T12Z_MSC_GDPS_GeopotentialHeight_IsbL-0001_LatLon0.15_PT129H.grib2 2026-04-11 16:46 536K
20260411T12Z_MSC_GDPS_GeopotentialHeight_IsbL-0005_LatLon0.15_PT129H.grib2 2026-04-11 16:46 496K
20260411T12Z_MSC_GDPS_GeopotentialHeight_IsbL-0010_LatLon0.15_PT129H.grib2 2026-04-11 16:46 433K
20260411T12Z_MSC_GDPS_GeopotentialHeight_IsbL-0020_LatLon0.15_PT129H.grib2 2026-04-11 16:46 575K
20260411T12Z_MSC_GDPS_GeopotentialHeight_IsbL-0030_LatLon0.15_PT129H.grib2 2026-04-11 16:46 579K
20260411T12Z_MSC_GDPS_GeopotentialHeight_IsbL-0050_LatLon0.15_PT129H.grib2 2026-04-11 16:46 514K
20260411T12Z_MSC_GDPS_GeopotentialHeight_IsbL-0100_LatLon0.15_PT129H.grib2 2026-04-11 16:46 618K
20260411T12Z_MSC_GDPS_GeopotentialHeight_IsbL-0150_LatLon0.15_PT129H.grib2 2026-04-11 16:46 632K
20260411T12Z_MSC_GDPS_GeopotentialHeight_IsbL-0175_LatLon0.15_PT129H.grib2 2026-04-11 16:46 633K
20260411T12Z_MSC_GDPS_GeopotentialHeight_IsbL-0200_LatLon0.15_PT129H.grib2 2026-04-11 16:46 634K
20260411T12Z_MSC_GDPS_GeopotentialHeight_IsbL-0225_LatLon0.15_PT129H.grib2 2026-04-11 16:46 639K
20260411T12Z_MSC_GDPS_GeopotentialHeight_IsbL-0250_LatLon0.15_PT129H.grib2 2026-04-11 16:46 642K
20260411T12Z_MSC_GDPS_GeopotentialHeight_IsbL-0275_LatLon0.15_PT129H.grib2 2026-04-11 16:46 641K
20260411T12Z_MSC_GDPS_GeopotentialHeight_IsbL-0300_LatLon0.15_PT129H.grib2 2026-04-11 16:46 640K
20260411T12Z_MSC_GDPS_GeopotentialHeight_IsbL-0350_LatLon0.15_PT129H.grib2 2026-04-11 16:46 631K
20260411T12Z_MSC_GDPS_GeopotentialHeight_IsbL-0400_LatLon0.15_PT129H.grib2 2026-04-11 16:46 621K
20260411T12Z_MSC_GDPS_GeopotentialHeight_IsbL-0450_LatLon0.15_PT129H.grib2 2026-04-11 16:46 541K
20260411T12Z_MSC_GDPS_GeopotentialHeight_IsbL-0500_LatLon0.15_PT129H.grib2 2026-04-11 16:46 530K
20260411T12Z_MSC_GDPS_GeopotentialHeight_IsbL-0550_LatLon0.15_PT129H.grib2 2026-04-11 16:46 692K
20260411T12Z_MSC_GDPS_GeopotentialHeight_IsbL-0600_LatLon0.15_PT129H.grib2 2026-04-11 16:46 682K
20260411T12Z_MSC_GDPS_GeopotentialHeight_IsbL-0650_LatLon0.15_PT129H.grib2 2026-04-11 16:46 681K
20260411T12Z_MSC_GDPS_GeopotentialHeight_IsbL-0700_LatLon0.15_PT129H.grib2 2026-04-11 16:46 682K
20260411T12Z_MSC_GDPS_GeopotentialHeight_IsbL-0750_LatLon0.15_PT129H.grib2 2026-04-11 16:46 682K
20260411T12Z_MSC_GDPS_GeopotentialHeight_IsbL-0800_LatLon0.15_PT129H.grib2 2026-04-11 16:46 698K
20260411T12Z_MSC_GDPS_GeopotentialHeight_IsbL-0850_LatLon0.15_PT129H.grib2 2026-04-11 16:46 710K
20260411T12Z_MSC_GDPS_GeopotentialHeight_IsbL-0875_LatLon0.15_PT129H.grib2 2026-04-11 16:46 715K
20260411T12Z_MSC_GDPS_GeopotentialHeight_IsbL-0900_LatLon0.15_PT129H.grib2 2026-04-11 16:46 720K
20260411T12Z_MSC_GDPS_GeopotentialHeight_IsbL-0925_LatLon0.15_PT129H.grib2 2026-04-11 16:46 727K
20260411T12Z_MSC_GDPS_GeopotentialHeight_IsbL-0950_LatLon0.15_PT129H.grib2 2026-04-11 16:46 735K
20260411T12Z_MSC_GDPS_GeopotentialHeight_IsbL-0970_LatLon0.15_PT129H.grib2 2026-04-11 16:46 749K
20260411T12Z_MSC_GDPS_GeopotentialHeight_IsbL-0985_LatLon0.15_PT129H.grib2 2026-04-11 16:46 765K
20260411T12Z_MSC_GDPS_GeopotentialHeight_IsbL-1000_LatLon0.15_PT129H.grib2 2026-04-11 16:46 785K
20260411T12Z_MSC_GDPS_GeopotentialHeight_IsbL-1015_LatLon0.15_PT129H.grib2 2026-04-11 16:46 809K
20260411T12Z_MSC_GDPS_Humidex_Sfc_LatLon0.15_PT129H.grib2 2026-04-11 16:46 5.3M
20260411T12Z_MSC_GDPS_IcePellets-Accum1h_Sfc_LatLon0.15_PT129H.grib2 2026-04-11 16:46 7.3K
20260411T12Z_MSC_GDPS_IcePellets-Accum3h_Sfc_LatLon0.15_PT129H.grib2 2026-04-11 16:46 9.4K
20260411T12Z_MSC_GDPS_IcePellets-Accum_Sfc_LatLon0.15_PT129H.grib2 2026-04-11 16:46 132K
20260411T12Z_MSC_GDPS_KIndex_Sfc_LatLon0.15_PT129H.grib2 2026-04-11 16:46 6.5M
20260411T12Z_MSC_GDPS_LatentHeatNetFlux_Sfc_LatLon0.15_PT129H.grib2 2026-04-11 16:46 485K
20260411T12Z_MSC_GDPS_LiftedIndex-MU-VT_IsbL-0500_LatLon0.15_PT129H.grib2 2026-04-11 16:46 5.4M
20260411T12Z_MSC_GDPS_NetLongwaveRadiationFlux-Accum_Sfc_LatLon0.15_PT129H.grib2 2026-04-11 16:46 1.0M
20260411T12Z_MSC_GDPS_NetShortwaveRadiationFlux-Accum_Sfc_LatLon0.15_PT129H.grib2 2026-04-11 16:46 1.0M
20260411T12Z_MSC_GDPS_O3MixingRatio_LatLon0.15_PT129H.grib2 2026-04-11 17:06 2.3M
20260411T12Z_MSC_GDPS_O3_EAtm_LatLon0.15_PT129H.grib2 2026-04-11 17:06 2.1M
20260411T12Z_MSC_GDPS_PlanetaryBoundaryLayerHeight_Sfc_LatLon0.15_PT129H.grib2 2026-04-11 16:46 2.4M
20260411T12Z_MSC_GDPS_Precip-Accum1h_Sfc_LatLon0.15_PT129H.grib2 2026-04-11 16:46 3.2M
20260411T12Z_MSC_GDPS_Precip-Accum3h_Sfc_LatLon0.15_PT129H.grib2 2026-04-11 16:46 3.4M
20260411T12Z_MSC_GDPS_Precip-Accum_Sfc_LatLon0.15_PT129H.grib2 2026-04-11 16:46 4.7M
20260411T12Z_MSC_GDPS_PrecipRate_Sfc_LatLon0.15_PT129H.grib2 2026-04-11 16:46 2.9M
20260411T12Z_MSC_GDPS_PrecipType-Instant_Sfc_LatLon0.15_PT129H.grib2 2026-04-11 16:46 1.5M
20260411T12Z_MSC_GDPS_Pressure_MSL_LatLon0.15_PT129H.grib2 2026-04-11 16:46 722K
20260411T12Z_MSC_GDPS_Pressure_PVU-1.5_LatLon0.15_PT129H.grib2 2026-04-11 16:46 5.8M
20260411T12Z_MSC_GDPS_Pressure_PVU-1_LatLon0.15_PT129H.grib2 2026-04-11 16:46 6.0M
20260411T12Z_MSC_GDPS_Pressure_PVU-2_LatLon0.15_PT129H.grib2 2026-04-11 16:46 5.6M
20260411T12Z_MSC_GDPS_Pressure_Sfc_LatLon0.15_PT129H.grib2 2026-04-11 16:46 1.1M
20260411T12Z_MSC_GDPS_RadiativeTemp_Sfc_LatLon0.15_PT129H.grib2 2026-04-11 16:46 668K
20260411T12Z_MSC_GDPS_Rain-Accum1h_Sfc_LatLon0.15_PT129H.grib2 2026-04-11 16:46 1.4M
20260411T12Z_MSC_GDPS_Rain-Accum3h_Sfc_LatLon0.15_PT129H.grib2 2026-04-11 16:46 1.6M
20260411T12Z_MSC_GDPS_Rain-Accum_Sfc_LatLon0.15_PT129H.grib2 2026-04-11 16:46 3.8M
20260411T12Z_MSC_GDPS_RelativeHumidity_AGL-2m_LatLon0.15_PT129H.grib2 2026-04-11 16:46 1.0M
20260411T12Z_MSC_GDPS_RelativeHumidity_IsbL-0010_LatLon0.15_PT129H.grib2 2026-04-11 16:46 239K
20260411T12Z_MSC_GDPS_RelativeHumidity_IsbL-0020_LatLon0.15_PT129H.grib2 2026-04-11 16:46 366K
20260411T12Z_MSC_GDPS_RelativeHumidity_IsbL-0030_LatLon0.15_PT129H.grib2 2026-04-11 16:46 379K
20260411T12Z_MSC_GDPS_RelativeHumidity_IsbL-0050_LatLon0.15_PT129H.grib2 2026-04-11 16:46 322K
20260411T12Z_MSC_GDPS_RelativeHumidity_IsbL-0100_LatLon0.15_PT129H.grib2 2026-04-11 16:46 487K
20260411T12Z_MSC_GDPS_RelativeHumidity_IsbL-0150_LatLon0.15_PT129H.grib2 2026-04-11 16:46 650K
20260411T12Z_MSC_GDPS_RelativeHumidity_IsbL-0175_LatLon0.15_PT129H.grib2 2026-04-11 16:46 772K
20260411T12Z_MSC_GDPS_RelativeHumidity_IsbL-0200_LatLon0.15_PT129H.grib2 2026-04-11 16:46 687K
20260411T12Z_MSC_GDPS_RelativeHumidity_IsbL-0225_LatLon0.15_PT129H.grib2 2026-04-11 16:46 782K
20260411T12Z_MSC_GDPS_RelativeHumidity_IsbL-0250_LatLon0.15_PT129H.grib2 2026-04-11 16:46 874K
20260411T12Z_MSC_GDPS_RelativeHumidity_IsbL-0275_LatLon0.15_PT129H.grib2 2026-04-11 16:46 900K
20260411T12Z_MSC_GDPS_RelativeHumidity_IsbL-0300_LatLon0.15_PT129H.grib2 2026-04-11 16:46 945K
20260411T12Z_MSC_GDPS_RelativeHumidity_IsbL-0350_LatLon0.15_PT129H.grib2 2026-04-11 16:46 971K
20260411T12Z_MSC_GDPS_RelativeHumidity_IsbL-0400_LatLon0.15_PT129H.grib2 2026-04-11 16:46 1.0M
20260411T12Z_MSC_GDPS_RelativeHumidity_IsbL-0450_LatLon0.15_PT129H.grib2 2026-04-11 16:46 1.0M
20260411T12Z_MSC_GDPS_RelativeHumidity_IsbL-0500_LatLon0.15_PT129H.grib2 2026-04-11 16:46 1.0M
20260411T12Z_MSC_GDPS_RelativeHumidity_IsbL-0550_LatLon0.15_PT129H.grib2 2026-04-11 16:46 1.0M
20260411T12Z_MSC_GDPS_RelativeHumidity_IsbL-0600_LatLon0.15_PT129H.grib2 2026-04-11 16:46 1.1M
20260411T12Z_MSC_GDPS_RelativeHumidity_IsbL-0650_LatLon0.15_PT129H.grib2 2026-04-11 16:46 1.1M
20260411T12Z_MSC_GDPS_RelativeHumidity_IsbL-0700_LatLon0.15_PT129H.grib2 2026-04-11 16:46 1.1M
20260411T12Z_MSC_GDPS_RelativeHumidity_IsbL-0750_LatLon0.15_PT129H.grib2 2026-04-11 16:46 1.2M
20260411T12Z_MSC_GDPS_RelativeHumidity_IsbL-0800_LatLon0.15_PT129H.grib2 2026-04-11 16:46 1.3M
20260411T12Z_MSC_GDPS_RelativeHumidity_IsbL-0850_LatLon0.15_PT129H.grib2 2026-04-11 16:46 1.3M
20260411T12Z_MSC_GDPS_RelativeHumidity_IsbL-0875_LatLon0.15_PT129H.grib2 2026-04-11 16:46 1.3M
20260411T12Z_MSC_GDPS_RelativeHumidity_IsbL-0900_LatLon0.15_PT129H.grib2 2026-04-11 16:46 1.3M
20260411T12Z_MSC_GDPS_RelativeHumidity_IsbL-0925_LatLon0.15_PT129H.grib2 2026-04-11 16:46 1.2M
20260411T12Z_MSC_GDPS_RelativeHumidity_IsbL-0950_LatLon0.15_PT129H.grib2 2026-04-11 16:46 1.2M
20260411T12Z_MSC_GDPS_RelativeHumidity_IsbL-0970_LatLon0.15_PT129H.grib2 2026-04-11 16:46 1.2M
20260411T12Z_MSC_GDPS_RelativeHumidity_IsbL-0985_LatLon0.15_PT129H.grib2 2026-04-11 16:46 1.2M
20260411T12Z_MSC_GDPS_RelativeHumidity_IsbL-1000_LatLon0.15_PT129H.grib2 2026-04-11 16:46 1.1M
20260411T12Z_MSC_GDPS_RelativeHumidity_IsbL-1015_LatLon0.15_PT129H.grib2 2026-04-11 16:46 1.1M
20260411T12Z_MSC_GDPS_RelativeVorticity_IsbL-0200_LatLon0.15_PT129H.grib2 2026-04-11 16:46 1.5M
20260411T12Z_MSC_GDPS_RelativeVorticity_IsbL-0250_LatLon0.15_PT129H.grib2 2026-04-11 16:46 1.3M
20260411T12Z_MSC_GDPS_RelativeVorticity_IsbL-0500_LatLon0.15_PT129H.grib2 2026-04-11 16:46 1.4M
20260411T12Z_MSC_GDPS_RelativeVorticity_IsbL-0700_LatLon0.15_PT129H.grib2 2026-04-11 16:46 1.3M
20260411T12Z_MSC_GDPS_RelativeVorticity_IsbL-0850_LatLon0.15_PT129H.grib2 2026-04-11 16:46 1.6M
20260411T12Z_MSC_GDPS_Runoff-Accum_Sfc_LatLon0.15_PT129H.grib2 2026-04-11 16:46 118K
20260411T12Z_MSC_GDPS_SensibleHeatNetFlux_Sfc_LatLon0.15_PT129H.grib2 2026-04-11 16:46 433K
20260411T12Z_MSC_GDPS_ShowalterIndex_IsbL-0500_LatLon0.15_PT129H.grib2 2026-04-11 16:46 6.2M
20260411T12Z_MSC_GDPS_Snow-Accum1h_Sfc_LatLon0.15_PT129H.grib2 2026-04-11 16:46 1.2M
20260411T12Z_MSC_GDPS_Snow-Accum3h_Sfc_LatLon0.15_PT129H.grib2 2026-04-11 16:46 1.1M
20260411T12Z_MSC_GDPS_Snow-Accum_Sfc_LatLon0.15_PT129H.grib2 2026-04-11 16:46 1.9M
20260411T12Z_MSC_GDPS_SnowDensity_Sfc_LatLon0.15_PT129H.grib2 2026-04-11 16:46 270K
20260411T12Z_MSC_GDPS_SnowDepth_Sfc_LatLon0.15_PT129H.grib2 2026-04-11 16:46 1.8M
20260411T12Z_MSC_GDPS_SoilTemp_DBS-0to10cm_LatLon0.15_PT129H.grib2 2026-04-11 16:46 512K
20260411T12Z_MSC_GDPS_SoilTemp_Sfc_LatLon0.15_PT129H.grib2 2026-04-11 16:46 580K
20260411T12Z_MSC_GDPS_SoilVolumetricIceContent_Sfc_LatLon0.15_PT129H.grib2 2026-04-11 16:46 225K
20260411T12Z_MSC_GDPS_SoilVolumetricWaterContent_DBS-0to10cm_LatLon0.15_PT129H.grib2 2026-04-11 16:46 551K
20260411T12Z_MSC_GDPS_SoilVolumetricWaterContent_DBS-0to1cm_LatLon0.15_PT129H.grib2 2026-04-11 16:46 650K
20260411T12Z_MSC_GDPS_SpecificHumidity_AGL-120m_LatLon0.15_PT129H.grib2 2026-04-11 16:46 1.1M
20260411T12Z_MSC_GDPS_SpecificHumidity_AGL-2m_LatLon0.15_PT129H.grib2 2026-04-11 16:46 1.2M
20260411T12Z_MSC_GDPS_SpecificHumidity_AGL-40m_LatLon0.15_PT129H.grib2 2026-04-11 16:46 1.1M
20260411T12Z_MSC_GDPS_SpecificHumidity_AGL-80m_LatLon0.15_PT129H.grib2 2026-04-11 16:46 1.1M
20260411T12Z_MSC_GDPS_SpecificHumidity_IsbL-0001_LatLon0.15_PT129H.grib2 2026-04-11 16:46 1.1M
20260411T12Z_MSC_GDPS_SpecificHumidity_IsbL-0005_LatLon0.15_PT129H.grib2 2026-04-11 16:46 1.1M
20260411T12Z_MSC_GDPS_SpecificHumidity_IsbL-0010_LatLon0.15_PT129H.grib2 2026-04-11 16:46 1.2M
20260411T12Z_MSC_GDPS_SpecificHumidity_IsbL-0020_LatLon0.15_PT129H.grib2 2026-04-11 16:46 1.3M
20260411T12Z_MSC_GDPS_SpecificHumidity_IsbL-0030_LatLon0.15_PT129H.grib2 2026-04-11 16:46 1.6M
20260411T12Z_MSC_GDPS_SpecificHumidity_IsbL-0050_LatLon0.15_PT129H.grib2 2026-04-11 16:46 1.3M
20260411T12Z_MSC_GDPS_SpecificHumidity_IsbL-0100_LatLon0.15_PT129H.grib2 2026-04-11 16:46 1.3M
20260411T12Z_MSC_GDPS_SpecificHumidity_IsbL-0150_LatLon0.15_PT129H.grib2 2026-04-11 16:46 1.2M
20260411T12Z_MSC_GDPS_SpecificHumidity_IsbL-0175_LatLon0.15_PT129H.grib2 2026-04-11 16:46 1.0M
20260411T12Z_MSC_GDPS_SpecificHumidity_IsbL-0200_LatLon0.15_PT129H.grib2 2026-04-11 16:46 1.0M
20260411T12Z_MSC_GDPS_SpecificHumidity_IsbL-0225_LatLon0.15_PT129H.grib2 2026-04-11 16:46 1.2M
20260411T12Z_MSC_GDPS_SpecificHumidity_IsbL-0250_LatLon0.15_PT129H.grib2 2026-04-11 16:46 1.2M
20260411T12Z_MSC_GDPS_SpecificHumidity_IsbL-0275_LatLon0.15_PT129H.grib2 2026-04-11 16:46 1.1M
20260411T12Z_MSC_GDPS_SpecificHumidity_IsbL-0300_LatLon0.15_PT129H.grib2 2026-04-11 16:46 1.2M
20260411T12Z_MSC_GDPS_SpecificHumidity_IsbL-0350_LatLon0.15_PT129H.grib2 2026-04-11 16:46 1.2M
20260411T12Z_MSC_GDPS_SpecificHumidity_IsbL-0400_LatLon0.15_PT129H.grib2 2026-04-11 16:46 1.4M
20260411T12Z_MSC_GDPS_SpecificHumidity_IsbL-0450_LatLon0.15_PT129H.grib2 2026-04-11 16:46 1.3M
20260411T12Z_MSC_GDPS_SpecificHumidity_IsbL-0500_LatLon0.15_PT129H.grib2 2026-04-11 16:46 1.4M
20260411T12Z_MSC_GDPS_SpecificHumidity_IsbL-0550_LatLon0.15_PT129H.grib2 2026-04-11 16:46 1.6M
20260411T12Z_MSC_GDPS_SpecificHumidity_IsbL-0600_LatLon0.15_PT129H.grib2 2026-04-11 16:46 1.4M
20260411T12Z_MSC_GDPS_SpecificHumidity_IsbL-0650_LatLon0.15_PT129H.grib2 2026-04-11 16:46 1.5M
20260411T12Z_MSC_GDPS_SpecificHumidity_IsbL-0700_LatLon0.15_PT129H.grib2 2026-04-11 16:46 1.6M
20260411T12Z_MSC_GDPS_SpecificHumidity_IsbL-0750_LatLon0.15_PT129H.grib2 2026-04-11 16:46 1.7M
20260411T12Z_MSC_GDPS_SpecificHumidity_IsbL-0800_LatLon0.15_PT129H.grib2 2026-04-11 16:46 1.8M
20260411T12Z_MSC_GDPS_SpecificHumidity_IsbL-0850_LatLon0.15_PT129H.grib2 2026-04-11 16:46 1.9M
20260411T12Z_MSC_GDPS_SpecificHumidity_IsbL-0875_LatLon0.15_PT129H.grib2 2026-04-11 16:46 1.9M
20260411T12Z_MSC_GDPS_SpecificHumidity_IsbL-0900_LatLon0.15_PT129H.grib2 2026-04-11 16:46 1.9M
20260411T12Z_MSC_GDPS_SpecificHumidity_IsbL-0925_LatLon0.15_PT129H.grib2 2026-04-11 16:46 1.9M
20260411T12Z_MSC_GDPS_SpecificHumidity_IsbL-0950_LatLon0.15_PT129H.grib2 2026-04-11 16:46 1.5M
20260411T12Z_MSC_GDPS_SpecificHumidity_IsbL-0970_LatLon0.15_PT129H.grib2 2026-04-11 16:46 1.5M
20260411T12Z_MSC_GDPS_SpecificHumidity_IsbL-0985_LatLon0.15_PT129H.grib2 2026-04-11 16:46 1.5M
20260411T12Z_MSC_GDPS_SpecificHumidity_IsbL-1000_LatLon0.15_PT129H.grib2 2026-04-11 16:46 1.5M
20260411T12Z_MSC_GDPS_SpecificHumidity_IsbL-1015_LatLon0.15_PT129H.grib2 2026-04-11 16:46 1.4M
20260411T12Z_MSC_GDPS_SpecificHumidity_Sfc_LatLon0.15_PT129H.grib2 2026-04-11 16:46 626K
20260411T12Z_MSC_GDPS_Thickness_IsbL-0850to0700_LatLon0.15_PT129H.grib2 2026-04-11 16:46 467K
20260411T12Z_MSC_GDPS_Thickness_IsbL-1000to0500_LatLon0.15_PT129H.grib2 2026-04-11 16:46 377K
20260411T12Z_MSC_GDPS_Thickness_IsbL-1000to0850_LatLon0.15_PT129H.grib2 2026-04-11 16:46 490K
20260411T12Z_MSC_GDPS_TotalCloudCover_Sfc_LatLon0.15_PT129H.grib2 2026-04-11 16:46 830K
20260411T12Z_MSC_GDPS_TotalTotalsIndex_Sfc_LatLon0.15_PT129H.grib2 2026-04-11 16:46 6.2M
20260411T12Z_MSC_GDPS_UVIndex-ClearSky_Sfc_LatLon0.15_PT129H.grib2 2026-04-11 17:06 1.0M
20260411T12Z_MSC_GDPS_UVIndex_Sfc_LatLon0.15_PT129H.grib2 2026-04-11 17:06 1.5M
20260411T12Z_MSC_GDPS_UpwardLongwaveRadiationFlux_NTAtm_LatLon0.15_PT129H.grib2 2026-04-11 16:46 840K
20260411T12Z_MSC_GDPS_VerticalVelocity_IsbL-0200_LatLon0.15_PT129H.grib2 2026-04-11 16:46 1.2M
20260411T12Z_MSC_GDPS_VerticalVelocity_IsbL-0250_LatLon0.15_PT129H.grib2 2026-04-11 16:46 1.0M
20260411T12Z_MSC_GDPS_VerticalVelocity_IsbL-0500_LatLon0.15_PT129H.grib2 2026-04-11 16:46 1.0M
20260411T12Z_MSC_GDPS_VerticalVelocity_IsbL-0600_LatLon0.15_PT129H.grib2 2026-04-11 16:46 1.1M
20260411T12Z_MSC_GDPS_VerticalVelocity_IsbL-0700_LatLon0.15_PT129H.grib2 2026-04-11 16:46 1.1M
20260411T12Z_MSC_GDPS_VerticalVelocity_IsbL-0850_LatLon0.15_PT129H.grib2 2026-04-11 16:46 1.6M
20260411T12Z_MSC_GDPS_WindChill_Sfc_LatLon0.15_PT129H.grib2 2026-04-11 16:46 5.4M
20260411T12Z_MSC_GDPS_WindDir_AGL-10m_LatLon0.15_PT129H.grib2 2026-04-11 16:46 1.4M
20260411T12Z_MSC_GDPS_WindDir_AGL-120m_LatLon0.15_PT129H.grib2 2026-04-11 16:46 1.4M
20260411T12Z_MSC_GDPS_WindDir_AGL-40m_LatLon0.15_PT129H.grib2 2026-04-11 16:46 1.4M
20260411T12Z_MSC_GDPS_WindDir_AGL-80m_LatLon0.15_PT129H.grib2 2026-04-11 16:46 1.4M
20260411T12Z_MSC_GDPS_WindDir_IsbL-0001_LatLon0.15_PT129H.grib2 2026-04-11 16:46 639K
20260411T12Z_MSC_GDPS_WindDir_IsbL-0005_LatLon0.15_PT129H.grib2 2026-04-11 16:46 791K
20260411T12Z_MSC_GDPS_WindDir_IsbL-0010_LatLon0.15_PT129H.grib2 2026-04-11 16:46 849K
20260411T12Z_MSC_GDPS_WindDir_IsbL-0020_LatLon0.15_PT129H.grib2 2026-04-11 16:46 909K
20260411T12Z_MSC_GDPS_WindDir_IsbL-0030_LatLon0.15_PT129H.grib2 2026-04-11 16:46 881K
20260411T12Z_MSC_GDPS_WindDir_IsbL-0050_LatLon0.15_PT129H.grib2 2026-04-11 16:46 945K
20260411T12Z_MSC_GDPS_WindDir_IsbL-0100_LatLon0.15_PT129H.grib2 2026-04-11 16:46 1.0M
20260411T12Z_MSC_GDPS_WindDir_IsbL-0150_LatLon0.15_PT129H.grib2 2026-04-11 16:46 1.0M
20260411T12Z_MSC_GDPS_WindDir_IsbL-0175_LatLon0.15_PT129H.grib2 2026-04-11 16:46 1.0M
20260411T12Z_MSC_GDPS_WindDir_IsbL-0200_LatLon0.15_PT129H.grib2 2026-04-11 16:46 1.1M
20260411T12Z_MSC_GDPS_WindDir_IsbL-0225_LatLon0.15_PT129H.grib2 2026-04-11 16:46 1.1M
20260411T12Z_MSC_GDPS_WindDir_IsbL-0250_LatLon0.15_PT129H.grib2 2026-04-11 16:46 1.1M
20260411T12Z_MSC_GDPS_WindDir_IsbL-0275_LatLon0.15_PT129H.grib2 2026-04-11 16:46 1.2M
20260411T12Z_MSC_GDPS_WindDir_IsbL-0300_LatLon0.15_PT129H.grib2 2026-04-11 16:46 1.2M
20260411T12Z_MSC_GDPS_WindDir_IsbL-0350_LatLon0.15_PT129H.grib2 2026-04-11 16:46 1.2M
20260411T12Z_MSC_GDPS_WindDir_IsbL-0400_LatLon0.15_PT129H.grib2 2026-04-11 16:46 1.3M
20260411T12Z_MSC_GDPS_WindDir_IsbL-0450_LatLon0.15_PT129H.grib2 2026-04-11 16:46 1.3M
20260411T12Z_MSC_GDPS_WindDir_IsbL-0500_LatLon0.15_PT129H.grib2 2026-04-11 16:46 1.4M
20260411T12Z_MSC_GDPS_WindDir_IsbL-0550_LatLon0.15_PT129H.grib2 2026-04-11 16:46 1.4M
20260411T12Z_MSC_GDPS_WindDir_IsbL-0600_LatLon0.15_PT129H.grib2 2026-04-11 16:46 1.5M
20260411T12Z_MSC_GDPS_WindDir_IsbL-0650_LatLon0.15_PT129H.grib2 2026-04-11 16:46 1.5M
20260411T12Z_MSC_GDPS_WindDir_IsbL-0700_LatLon0.15_PT129H.grib2 2026-04-11 16:46 1.6M
20260411T12Z_MSC_GDPS_WindDir_IsbL-0750_LatLon0.15_PT129H.grib2 2026-04-11 16:46 1.7M
20260411T12Z_MSC_GDPS_WindDir_IsbL-0800_LatLon0.15_PT129H.grib2 2026-04-11 16:46 1.8M
20260411T12Z_MSC_GDPS_WindDir_IsbL-0850_LatLon0.15_PT129H.grib2 2026-04-11 16:46 2.0M
20260411T12Z_MSC_GDPS_WindDir_IsbL-0875_LatLon0.15_PT129H.grib2 2026-04-11 16:46 2.0M
20260411T12Z_MSC_GDPS_WindDir_IsbL-0900_LatLon0.15_PT129H.grib2 2026-04-11 16:46 2.0M
20260411T12Z_MSC_GDPS_WindDir_IsbL-0925_LatLon0.15_PT129H.grib2 2026-04-11 16:46 2.0M
20260411T12Z_MSC_GDPS_WindDir_IsbL-0950_LatLon0.15_PT129H.grib2 2026-04-11 16:46 2.0M
20260411T12Z_MSC_GDPS_WindDir_IsbL-0970_LatLon0.15_PT129H.grib2 2026-04-11 16:46 2.0M
20260411T12Z_MSC_GDPS_WindDir_IsbL-0985_LatLon0.15_PT129H.grib2 2026-04-11 16:46 2.1M
20260411T12Z_MSC_GDPS_WindDir_IsbL-1000_LatLon0.15_PT129H.grib2 2026-04-11 16:46 2.1M
20260411T12Z_MSC_GDPS_WindDir_IsbL-1015_LatLon0.15_PT129H.grib2 2026-04-11 16:46 2.1M
20260411T12Z_MSC_GDPS_WindGust-Max_AGL-10m_LatLon0.15_PT129H.grib2 2026-04-11 16:46 2.2M
20260411T12Z_MSC_GDPS_WindGust-Min_AGL-10m_LatLon0.15_PT129H.grib2 2026-04-11 16:46 2.2M
20260411T12Z_MSC_GDPS_WindGust_AGL-10m_LatLon0.15_PT129H.grib2 2026-04-11 16:46 2.2M
20260411T12Z_MSC_GDPS_WindSpeed_AGL-10m_LatLon0.15_PT129H.grib2 2026-04-11 16:46 1.1M
20260411T12Z_MSC_GDPS_WindSpeed_AGL-120m_LatLon0.15_PT129H.grib2 2026-04-11 16:46 1.3M
20260411T12Z_MSC_GDPS_WindSpeed_AGL-40m_LatLon0.15_PT129H.grib2 2026-04-11 16:46 1.2M
20260411T12Z_MSC_GDPS_WindSpeed_AGL-80m_LatLon0.15_PT129H.grib2 2026-04-11 16:46 1.3M
20260411T12Z_MSC_GDPS_WindSpeed_IsbL-0001_LatLon0.15_PT129H.grib2 2026-04-11 16:46 633K
20260411T12Z_MSC_GDPS_WindSpeed_IsbL-0005_LatLon0.15_PT129H.grib2 2026-04-11 16:46 680K
20260411T12Z_MSC_GDPS_WindSpeed_IsbL-0010_LatLon0.15_PT129H.grib2 2026-04-11 16:46 697K
20260411T12Z_MSC_GDPS_WindSpeed_IsbL-0020_LatLon0.15_PT129H.grib2 2026-04-11 16:46 665K
20260411T12Z_MSC_GDPS_WindSpeed_IsbL-0030_LatLon0.15_PT129H.grib2 2026-04-11 16:46 856K
20260411T12Z_MSC_GDPS_WindSpeed_IsbL-0050_LatLon0.15_PT129H.grib2 2026-04-11 16:46 911K
20260411T12Z_MSC_GDPS_WindSpeed_IsbL-0100_LatLon0.15_PT129H.grib2 2026-04-11 16:46 1.1M
20260411T12Z_MSC_GDPS_WindSpeed_IsbL-0150_LatLon0.15_PT129H.grib2 2026-04-11 16:46 1.0M
20260411T12Z_MSC_GDPS_WindSpeed_IsbL-0175_LatLon0.15_PT129H.grib2 2026-04-11 16:46 1.0M
20260411T12Z_MSC_GDPS_WindSpeed_IsbL-0200_LatLon0.15_PT129H.grib2 2026-04-11 16:46 1.0M
20260411T12Z_MSC_GDPS_WindSpeed_IsbL-0225_LatLon0.15_PT129H.grib2 2026-04-11 16:46 1.1M
20260411T12Z_MSC_GDPS_WindSpeed_IsbL-0250_LatLon0.15_PT129H.grib2 2026-04-11 16:46 1.1M
20260411T12Z_MSC_GDPS_WindSpeed_IsbL-0275_LatLon0.15_PT129H.grib2 2026-04-11 16:46 1.1M
20260411T12Z_MSC_GDPS_WindSpeed_IsbL-0300_LatLon0.15_PT129H.grib2 2026-04-11 16:46 1.1M
20260411T12Z_MSC_GDPS_WindSpeed_IsbL-0350_LatLon0.15_PT129H.grib2 2026-04-11 16:46 1.1M
20260411T12Z_MSC_GDPS_WindSpeed_IsbL-0400_LatLon0.15_PT129H.grib2 2026-04-11 16:46 1.1M
20260411T12Z_MSC_GDPS_WindSpeed_IsbL-0450_LatLon0.15_PT129H.grib2 2026-04-11 16:46 1.1M
20260411T12Z_MSC_GDPS_WindSpeed_IsbL-0500_LatLon0.15_PT129H.grib2 2026-04-11 16:46 1.1M
20260411T12Z_MSC_GDPS_WindSpeed_IsbL-0550_LatLon0.15_PT129H.grib2 2026-04-11 16:46 1.1M
20260411T12Z_MSC_GDPS_WindSpeed_IsbL-0600_LatLon0.15_PT129H.grib2 2026-04-11 16:46 1.4M
20260411T12Z_MSC_GDPS_WindSpeed_IsbL-0650_LatLon0.15_PT129H.grib2 2026-04-11 16:46 1.4M
20260411T12Z_MSC_GDPS_WindSpeed_IsbL-0700_LatLon0.15_PT129H.grib2 2026-04-11 16:46 1.5M
20260411T12Z_MSC_GDPS_WindSpeed_IsbL-0750_LatLon0.15_PT129H.grib2 2026-04-11 16:46 1.5M
20260411T12Z_MSC_GDPS_WindSpeed_IsbL-0800_LatLon0.15_PT129H.grib2 2026-04-11 16:46 1.6M
20260411T12Z_MSC_GDPS_WindSpeed_IsbL-0850_LatLon0.15_PT129H.grib2 2026-04-11 16:46 1.7M
20260411T12Z_MSC_GDPS_WindSpeed_IsbL-0875_LatLon0.15_PT129H.grib2 2026-04-11 16:46 1.9M
20260411T12Z_MSC_GDPS_WindSpeed_IsbL-0900_LatLon0.15_PT129H.grib2 2026-04-11 16:46 1.9M
20260411T12Z_MSC_GDPS_WindSpeed_IsbL-0925_LatLon0.15_PT129H.grib2 2026-04-11 16:46 1.9M
20260411T12Z_MSC_GDPS_WindSpeed_IsbL-0950_LatLon0.15_PT129H.grib2 2026-04-11 16:46 1.9M
20260411T12Z_MSC_GDPS_WindSpeed_IsbL-0970_LatLon0.15_PT129H.grib2 2026-04-11 16:46 1.9M
20260411T12Z_MSC_GDPS_WindSpeed_IsbL-0985_LatLon0.15_PT129H.grib2 2026-04-11 16:46 1.9M
20260411T12Z_MSC_GDPS_WindSpeed_IsbL-1000_LatLon0.15_PT129H.grib2 2026-04-11 16:46 1.9M
20260411T12Z_MSC_GDPS_WindSpeed_IsbL-1015_LatLon0.15_PT129H.grib2 2026-04-11 16:46 1.8M
20260411T12Z_MSC_GDPS_WindU_AGL-10m_LatLon0.15_PT129H.grib2 2026-04-11 16:46 1.3M
20260411T12Z_MSC_GDPS_WindU_AGL-120m_LatLon0.15_PT129H.grib2 2026-04-11 16:46 1.0M
20260411T12Z_MSC_GDPS_WindU_AGL-40m_LatLon0.15_PT129H.grib2 2026-04-11 16:46 1.0M
20260411T12Z_MSC_GDPS_WindU_AGL-80m_LatLon0.15_PT129H.grib2 2026-04-11 16:46 1.0M
20260411T12Z_MSC_GDPS_WindU_IsbL-0001_LatLon0.15_PT129H.grib2 2026-04-11 16:46 494K
20260411T12Z_MSC_GDPS_WindU_IsbL-0005_LatLon0.15_PT129H.grib2 2026-04-11 16:46 680K
20260411T12Z_MSC_GDPS_WindU_IsbL-0010_LatLon0.15_PT129H.grib2 2026-04-11 16:46 692K
20260411T12Z_MSC_GDPS_WindU_IsbL-0020_LatLon0.15_PT129H.grib2 2026-04-11 16:46 732K
20260411T12Z_MSC_GDPS_WindU_IsbL-0030_LatLon0.15_PT129H.grib2 2026-04-11 16:46 732K
20260411T12Z_MSC_GDPS_WindU_IsbL-0050_LatLon0.15_PT129H.grib2 2026-04-11 16:46 700K
20260411T12Z_MSC_GDPS_WindU_IsbL-0100_LatLon0.15_PT129H.grib2 2026-04-11 16:46 928K
20260411T12Z_MSC_GDPS_WindU_IsbL-0150_LatLon0.15_PT129H.grib2 2026-04-11 16:46 1.0M
20260411T12Z_MSC_GDPS_WindU_IsbL-0175_LatLon0.15_PT129H.grib2 2026-04-11 16:46 807K
20260411T12Z_MSC_GDPS_WindU_IsbL-0200_LatLon0.15_PT129H.grib2 2026-04-11 16:46 1.0M
20260411T12Z_MSC_GDPS_WindU_IsbL-0225_LatLon0.15_PT129H.grib2 2026-04-11 16:46 1.1M
20260411T12Z_MSC_GDPS_WindU_IsbL-0250_LatLon0.15_PT129H.grib2 2026-04-11 16:46 1.1M
20260411T12Z_MSC_GDPS_WindU_IsbL-0275_LatLon0.15_PT129H.grib2 2026-04-11 16:46 889K
20260411T12Z_MSC_GDPS_WindU_IsbL-0300_LatLon0.15_PT129H.grib2 2026-04-11 16:46 880K
20260411T12Z_MSC_GDPS_WindU_IsbL-0350_LatLon0.15_PT129H.grib2 2026-04-11 16:46 895K
20260411T12Z_MSC_GDPS_WindU_IsbL-0400_LatLon0.15_PT129H.grib2 2026-04-11 16:46 1.1M
20260411T12Z_MSC_GDPS_WindU_IsbL-0450_LatLon0.15_PT129H.grib2 2026-04-11 16:46 1.1M
20260411T12Z_MSC_GDPS_WindU_IsbL-0500_LatLon0.15_PT129H.grib2 2026-04-11 16:46 1.1M
20260411T12Z_MSC_GDPS_WindU_IsbL-0550_LatLon0.15_PT129H.grib2 2026-04-11 16:46 1.1M
20260411T12Z_MSC_GDPS_WindU_IsbL-0600_LatLon0.15_PT129H.grib2 2026-04-11 16:46 1.1M
20260411T12Z_MSC_GDPS_WindU_IsbL-0650_LatLon0.15_PT129H.grib2 2026-04-11 16:46 1.2M
20260411T12Z_MSC_GDPS_WindU_IsbL-0700_LatLon0.15_PT129H.grib2 2026-04-11 16:46 1.2M
20260411T12Z_MSC_GDPS_WindU_IsbL-0750_LatLon0.15_PT129H.grib2 2026-04-11 16:46 1.3M
20260411T12Z_MSC_GDPS_WindU_IsbL-0800_LatLon0.15_PT129H.grib2 2026-04-11 16:46 1.3M
20260411T12Z_MSC_GDPS_WindU_IsbL-0850_LatLon0.15_PT129H.grib2 2026-04-11 16:46 1.4M
20260411T12Z_MSC_GDPS_WindU_IsbL-0875_LatLon0.15_PT129H.grib2 2026-04-11 16:46 1.4M
20260411T12Z_MSC_GDPS_WindU_IsbL-0900_LatLon0.15_PT129H.grib2 2026-04-11 16:46 1.5M
20260411T12Z_MSC_GDPS_WindU_IsbL-0925_LatLon0.15_PT129H.grib2 2026-04-11 16:46 1.5M
20260411T12Z_MSC_GDPS_WindU_IsbL-0950_LatLon0.15_PT129H.grib2 2026-04-11 16:46 1.4M
20260411T12Z_MSC_GDPS_WindU_IsbL-0970_LatLon0.15_PT129H.grib2 2026-04-11 16:46 1.4M
20260411T12Z_MSC_GDPS_WindU_IsbL-0985_LatLon0.15_PT129H.grib2 2026-04-11 16:46 1.4M
20260411T12Z_MSC_GDPS_WindU_IsbL-1000_LatLon0.15_PT129H.grib2 2026-04-11 16:46 1.4M
20260411T12Z_MSC_GDPS_WindU_IsbL-1015_LatLon0.15_PT129H.grib2 2026-04-11 16:46 1.4M
20260411T12Z_MSC_GDPS_WindV_AGL-10m_LatLon0.15_PT129H.grib2 2026-04-11 16:46 1.3M
20260411T12Z_MSC_GDPS_WindV_AGL-120m_LatLon0.15_PT129H.grib2 2026-04-11 16:46 1.0M
20260411T12Z_MSC_GDPS_WindV_AGL-40m_LatLon0.15_PT129H.grib2 2026-04-11 16:46 1.0M
20260411T12Z_MSC_GDPS_WindV_AGL-80m_LatLon0.15_PT129H.grib2 2026-04-11 16:46 1.0M
20260411T12Z_MSC_GDPS_WindV_IsbL-0001_LatLon0.15_PT129H.grib2 2026-04-11 16:46 692K
20260411T12Z_MSC_GDPS_WindV_IsbL-0005_LatLon0.15_PT129H.grib2 2026-04-11 16:46 770K
20260411T12Z_MSC_GDPS_WindV_IsbL-0010_LatLon0.15_PT129H.grib2 2026-04-11 16:46 798K
20260411T12Z_MSC_GDPS_WindV_IsbL-0020_LatLon0.15_PT129H.grib2 2026-04-11 16:46 853K
20260411T12Z_MSC_GDPS_WindV_IsbL-0030_LatLon0.15_PT129H.grib2 2026-04-11 16:46 853K
20260411T12Z_MSC_GDPS_WindV_IsbL-0050_LatLon0.15_PT129H.grib2 2026-04-11 16:46 904K
20260411T12Z_MSC_GDPS_WindV_IsbL-0100_LatLon0.15_PT129H.grib2 2026-04-11 16:46 857K
20260411T12Z_MSC_GDPS_WindV_IsbL-0150_LatLon0.15_PT129H.grib2 2026-04-11 16:46 1.0M
20260411T12Z_MSC_GDPS_WindV_IsbL-0175_LatLon0.15_PT129H.grib2 2026-04-11 16:46 1.0M
20260411T12Z_MSC_GDPS_WindV_IsbL-0200_LatLon0.15_PT129H.grib2 2026-04-11 16:46 1.0M
20260411T12Z_MSC_GDPS_WindV_IsbL-0225_LatLon0.15_PT129H.grib2 2026-04-11 16:46 850K
20260411T12Z_MSC_GDPS_WindV_IsbL-0250_LatLon0.15_PT129H.grib2 2026-04-11 16:46 853K
20260411T12Z_MSC_GDPS_WindV_IsbL-0275_LatLon0.15_PT129H.grib2 2026-04-11 16:46 939K
20260411T12Z_MSC_GDPS_WindV_IsbL-0300_LatLon0.15_PT129H.grib2 2026-04-11 16:46 929K
20260411T12Z_MSC_GDPS_WindV_IsbL-0350_LatLon0.15_PT129H.grib2 2026-04-11 16:46 942K
20260411T12Z_MSC_GDPS_WindV_IsbL-0400_LatLon0.15_PT129H.grib2 2026-04-11 16:46 883K
20260411T12Z_MSC_GDPS_WindV_IsbL-0450_LatLon0.15_PT129H.grib2 2026-04-11 16:46 882K
20260411T12Z_MSC_GDPS_WindV_IsbL-0500_LatLon0.15_PT129H.grib2 2026-04-11 16:46 1.1M
20260411T12Z_MSC_GDPS_WindV_IsbL-0550_LatLon0.15_PT129H.grib2 2026-04-11 16:46 1.1M
20260411T12Z_MSC_GDPS_WindV_IsbL-0600_LatLon0.15_PT129H.grib2 2026-04-11 16:46 1.1M
20260411T12Z_MSC_GDPS_WindV_IsbL-0650_LatLon0.15_PT129H.grib2 2026-04-11 16:46 1.2M
20260411T12Z_MSC_GDPS_WindV_IsbL-0700_LatLon0.15_PT129H.grib2 2026-04-11 16:46 1.2M
20260411T12Z_MSC_GDPS_WindV_IsbL-0750_LatLon0.15_PT129H.grib2 2026-04-11 16:46 1.3M
20260411T12Z_MSC_GDPS_WindV_IsbL-0800_LatLon0.15_PT129H.grib2 2026-04-11 16:46 1.3M
20260411T12Z_MSC_GDPS_WindV_IsbL-0850_LatLon0.15_PT129H.grib2 2026-04-11 16:46 1.4M
20260411T12Z_MSC_GDPS_WindV_IsbL-0875_LatLon0.15_PT129H.grib2 2026-04-11 16:46 1.4M
20260411T12Z_MSC_GDPS_WindV_IsbL-0900_LatLon0.15_PT129H.grib2 2026-04-11 16:46 1.5M
20260411T12Z_MSC_GDPS_WindV_IsbL-0925_LatLon0.15_PT129H.grib2 2026-04-11 16:46 1.5M
20260411T12Z_MSC_GDPS_WindV_IsbL-0950_LatLon0.15_PT129H.grib2 2026-04-11 16:46 1.4M
20260411T12Z_MSC_GDPS_WindV_IsbL-0970_LatLon0.15_PT129H.grib2 2026-04-11 16:46 1.4M
20260411T12Z_MSC_GDPS_WindV_IsbL-0985_LatLon0.15_PT129H.grib2 2026-04-11 16:46 1.4M
20260411T12Z_MSC_GDPS_WindV_IsbL-1000_LatLon0.15_PT129H.grib2 2026-04-11 16:46 1.4M
20260411T12Z_MSC_GDPS_WindV_IsbL-1015_LatLon0.15_PT129H.grib2 2026-04-11 16:46 1.4M